This is the latest recevied weather packets stored in our database for station/object DB0TGO-13. If no packets are shown the sender has not sent any weather packets the latest 10 day(s).
| Time | Temp. | Humidity | Pressure | Rain* | Wind** | Luminosity | Snow |
|---|---|---|---|---|---|---|---|
| 1777645802 | 22.22° C | 30% | 1021.4 hPa | - | - | - | - |
| 1777644903 | 21.67° C | 31% | 1021.7 hPa | - | - | - | - |
| 1777644002 | 21.67° C | 31% | 1021.7 hPa | - | - | - | - |
| 1777643102 | 21.11° C | 34% | 1022.1 hPa | - | - | - | - |
| 1777642202 | 21.11° C | 34% | 1022.1 hPa | - | - | - | - |
| 1777641302 | 21.67° C | 32% | 1022.4 hPa | - | - | - | - |
| 1777640402 | 21.67° C | 32% | 1022.4 hPa | - | - | - | - |
| 1777639503 | 20.56° C | 35% | 1022.7 hPa | - | - | - | - |
| 1777638602 | 20.56° C | 35% | 1022.7 hPa | - | - | - | - |
| 1777637702 | 21.11° C | 35% | 1022.8 hPa | - | - | - | - |
| 1777636802 | 21.11° C | 35% | 1022.8 hPa | - | - | - | - |
| 1777635902 | 20° C | 36% | 1023.2 hPa | - | - | - | - |
| 1777635002 | 20° C | 36% | 1023.2 hPa | - | - | - | - |
| 1777634102 | 20° C | 41% | 1023.5 hPa | - | - | - | - |
| 1777633202 | 20° C | 41% | 1023.5 hPa | - | - | - | - |
| 1777632303 | 18.89° C | 36% | 1023.7 hPa | - | - | - | - |
| 1777631402 | 18.89° C | 36% | 1023.7 hPa | - | - | - | - |
| 1777630502 | 17.78° C | 36% | 1023.8 hPa | - | - | - | - |
| 1777629603 | 17.78° C | 36% | 1023.8 hPa | - | - | - | - |
| 1777628703 | 17.78° C | 39% | 1023.9 hPa | - | - | - | - |
| 1777627802 | 17.78° C | 39% | 1023.9 hPa | - | - | - | - |
| 1777626902 | 17.22° C | 44% | 1024 hPa | - | - | - | - |
| 1777626002 | 17.22° C | 44% | 1024 hPa | - | - | - | - |
| 1777625102 | 16.67° C | 43% | 1024 hPa | - | - | - | - |
| 1777624202 | 16.67° C | 43% | 1024 hPa | - | - | - | - |
* Rain since midnight (hover to see other rain measurements)
** Current wind speed in m/s (hover to see current wind gust speed)